Regional Weather Roundup
Issued by NWS Newport/Morehead, NC

Current Version | Previous Version | Text Only | Print | Product List | Glossary On
Versions: 1 2 3 4 5 6 7 8 9 10 11 12 13 14 15 16 17 18 19 20 21 22 23 24 25 26 27 28 29 30 31 32 33 34 35 36 37 38 39 40 41 42 43 44 45 46 47 48 49 50
000
ASUS42 KMHX 300225
RWRMHX
WEATHER ROUNDUP FOR EASTERN NORTH CAROLINA
NATIONAL WEATHER SERVICE NEWPORT/MOREHEAD CITY NC
1000 PM EDT MON JUN 29 2015

NOTE: "FAIR" INDICATES FEW OR NO CLOUDS BELOW 12,000 FEET
WITH NO SIGNIFICANT WEATHER AND/OR OBSTRUCTIONS TO VISIBILITY

NCZ015>017-031-032-045>047-102-103-300300-
NORTH COAST

CITY           SKY/WX    TMP DP  RH WIND       PRES   REMARKS
EDENTON        PTCLDY    77  67  72 SE7       29.97R
ELIZABETH CITY PTCLDY    77  70  79 SE5       29.98R
KITTY HAWK     PTCLDY    75  68  80 SE3       29.97R
MANTEO         MOCLDY    74  70  85 E5        29.99R

$$

NCZ045>047-081-094-103-104-300300-
CENTRAL COAST

CITY           SKY/WX    TMP DP  RH WIND       PRES   REMARKS
FRISCO         MOCLDY    76  71  85 CALM      29.98R
SWANQUARTER      N/A     75 N/A N/A N2        29.94R

$$

NCZ095-097-098-100-101-300300-
SOUTHERN COAST

CITY           SKY/WX    TMP DP  RH WIND       PRES   REMARKS
BEAUFORT       PTCLDY    79  75  87 SW9       29.97R
CEDAR ISLAND     N/A     79 N/A N/A S1G8      30.00S
JACKSONVILLE   CLEAR     76  72  87 S6        29.96R
PINEY ISLAND   PTCLDY   N/A N/A N/A CALM      29.97R
WILMINGTON     PTCLDY    78  69  73 SW7       29.97R


$$

NCZ011>013-027>030-043-044-078>080-089-090>093-098-300300-
COASTAL PLAIN

CITY           SKY/WX    TMP DP  RH WIND       PRES   REMARKS
AHOSKIE        PTCLDY    72  66  80 CALM      29.97R
CLINTON        PTCLDY    75  73  91 CALM      29.96R
ELIZABETHTOWN  PTCLDY    76  67  72 CALM      29.96S
GOLDSBORO      CLEAR     78  68  71 SE2       29.94R
GREENVILLE     PTCLDY    79  66  65 S3        29.98R
HAVELOCK       PTCLDY    77  72  84 S6        29.97R
KENANSVILLE    CLEAR     73  69  90 CALM      29.97R
KINSTON        PTCLDY    77  68  73 S3        29.97R
NEW BERN       CLEAR     76  71  85 S3        29.98R
RICHLANDS      CLEAR     73  68  83 SW3       29.97S
ROCKY MOUNT    PTCLDY    75  68  78 CALM      29.95S
WASHINGTON     PTCLDY    75  67  76 S3        29.97R
WHITEVILLE     CLEAR     77  69  76 S3        29.96R

$$

AMZ130-135-150-152-154-156-158-170-250-252-270-ANZ085-086-088-633-658-670-300300-
MARINE OBSERVATIONS

STATION/POSITION TIME  TEMP    WIND        PRES    WAVE   SWELL
                       AIR SEA DIR/SP/G            HT/PER HT/PER
                 (UTC) (F)     (DEG/KT/KT) (MB)    (FT/S) (FT/S)
CHESAPEAKE LIGHT 0200   76     150/ 10/ 11 1016.0
64 E VA BEACH    0150   76 76  110/ 10/ 12 1015.0    3/ 8   3/ 8
DUCK             0200   75 68  130/  8/  9 1014.3
2 E DUCK         0111      74                N/A     2/ 9
OREGON INLET     0200   74 77   80/  4/  5 1015.2
13E OREGON INLT  0200      75                N/A     3/ 7
HATTERAS CG      0200   79 81  170/  1/  3 1014.7
DIAMOND BUOY     0150   79 80  280/  6/ 10 1014.8    4/ 8   3/ 8
CAPE LOOKOUT     0200   79     230/  8/ 11 1014.7
BEAUFORT LAB     0200   79 81  230/  3/  9 1014.2
30 SE NEW RVR IN 0108   81 81  230/ 14/ 17 1014.5
27 SE WRIGHTSVLE 0200      81  240/ 14/ 16   N/A
5 SE WRIGHTSVLE  0108   81 79  220/ 14/ 17 1014.3
225 S CAPE HAT   0150   78 80  230/  8/ 10 1017.8    5/ 6   5/ 6
41 SE CHARLESTON 0150   82 83  210/ 16/ 17 1015.2    4/ 7   3/ 7

$$



USA.gov is the U.S. government's official web portal to all federal, state and local government web resources and services.